Location: Bacharowice
(49.9333°N, 19.5833°E)
Time: 11:26:40
(UTC+00:00)

Cosmos 1503 Rocket - Visible Passes

Search period start: 21 September 2021 00:00
Search period end: 01 October 2021 00:00
Orbit: 753 x 790 km, 74.0° (Epoch: 20 September)

Date Brightness Start Highest point End Pass type
(mag) Time Alt. Az. Time Alt. Az. Time Alt. Az.
21 Sep 6.2 02:28:01 10° N 02:32:22 26° NE 02:36:42 10° ESE visible
21 Sep 4.8 17:11:05 10° SSE 17:15:27 28° E 17:19:47 10° NE visible
21 Sep 4.9 18:52:17 10° SW 18:57:20 49° WNW 19:02:23 10° NNE visible
21 Sep 7.1 20:38:58 10° WNW 20:40:49 12° NW 20:42:41 10° NNW visible
22 Sep 6.7 01:52:23 10° N 01:56:01 19° NE 01:59:38 10° E visible
22 Sep 4.0 03:33:42 10° NNW 03:38:55 90° WSW 03:44:08 10° SSE visible
22 Sep 4.2 18:16:02 10° SSW 18:21:15 75° WNW 18:26:27 10° NNE visible
22 Sep 6.8 20:01:07 10° W 20:04:19 16° NW 20:07:33 10° N visible
23 Sep 7.0 01:17:00 10° N 01:19:34 14° NE 01:22:08 10° ENE visible
23 Sep 4.6 02:57:44 10° NNW 03:02:52 59° ENE 03:08:00 10° SE visible
23 Sep 3.9 17:40:04 10° SSW 17:45:15 72° ESE 17:50:25 10° NNE visible
23 Sep 6.4 19:23:53 10° W 19:27:56 22° NW 19:32:00 10° N visible
24 Sep 5.4 02:21:51 10° NNW 02:26:44 39° ENE 02:31:36 10° SE visible
24 Sep 4.3 17:04:25 10° S 17:09:20 45° ESE 17:14:16 10° NE visible
24 Sep 5.8 18:47:01 10° WSW 18:51:38 32° NW 18:56:17 10° N visible
25 Sep 6.0 01:46:05 10° N 01:50:30 27° NE 01:54:55 10° ESE visible
25 Sep 4.1 03:27:54 10° NNW 03:32:57 55° WSW 03:38:02 10° S visible
25 Sep 5.1 18:10:27 10° SW 18:15:27 47° WNW 18:20:28 10° NNE visible
25 Sep 7.1 19:57:22 10° NW 19:58:59 11° NW 20:00:35 10° NNW visible
26 Sep 6.5 01:10:25 10° N 01:14:10 20° NE 01:17:54 10° E visible
26 Sep 3.9 02:51:48 10° NNW 02:57:01 86° WSW 03:02:14 10° SSE visible
26 Sep 4.3 17:34:10 10° SSW 17:39:21 71° WNW 17:44:33 10° NNE visible
26 Sep 6.9 19:19:24 10° W 19:22:29 16° NW 19:25:33 10° N visible
27 Sep 6.9 00:35:00 10° N 00:37:44 14° NE 00:40:27 10° ENE visible
27 Sep 4.4 02:15:49 10° NNW 02:20:59 63° ENE 02:26:09 10° SE visible
27 Sep 5.1 03:58:47 10° NW 04:02:40 21° W 04:06:32 10° SW visible
27 Sep 4.0 16:58:10 10° SSW 17:03:20 75° ESE 17:08:32 10° NNE visible
27 Sep 6.5 18:42:07 10° W 18:46:04 22° NW 18:50:03 10° N visible
28 Sep 7.1 00:00:29 10° NNE 00:01:11 10° NE 00:01:53 10° NE visible
28 Sep 5.2 01:39:56 10° NNW 01:44:51 41° ENE 01:49:47 10° SE visible
28 Sep 4.6 03:22:16 10° NW 03:26:54 33° WSW 03:31:32 10° SSW visible
28 Sep 5.9 18:05:12 10° WSW 18:09:46 30° NW 18:14:21 10° N visible
29 Sep 5.8 01:04:08 10° N 01:08:38 28° NE 01:13:07 10° ESE visible
29 Sep 4.0 02:46:01 10° NNW 02:51:03 52° WSW 02:56:06 10° S visible
29 Sep 5.2 17:28:36 10° SW 17:33:34 44° WNW 17:38:32 10° NNE visible
29 Sep 7.1 19:15:49 10° NW 19:17:09 11° NW 19:18:28 10° NNW visible
30 Sep 6.3 00:28:28 10° N 00:32:19 20° NE 00:36:09 10° E visible
30 Sep 3.8 02:09:54 10° NNW 02:15:07 82° WSW 02:20:20 10° SSE visible
30 Sep 5.6 03:54:10 10° WNW 03:56:22 13° W 03:58:36 10° WSW visible
30 Sep 4.4 16:52:17 10° SSW 16:57:27 68° WNW 17:02:37 10° NNE visible
30 Sep 6.8 18:37:41 10° WNW 18:40:37 15° NW 18:43:35 10° N visible
30 Sep 6.7 23:53:00 10° N 23:55:53 15° NE 23:58:46 10° ENE visible
